Weather History for Redmond, OR

Change the Weather History Date:

Tuesday, February 26, 2013

  Actual Average Record
Temperature  
Mean Temperature 33 °F 37 °F  
Max Temperature 49 °F 49 °F 64 °F (1970)
Min Temperature 17 °F 24 °F -7 °F (2011)
Degree Days  
Heating Degree Days 32 28  
Month to date heating degree days 781 778  
Since 1 July heating degree days 4426 4618  
Cooling Degree Days 0 0  
Month to date cooling degree days 0 0  
Year to date cooling degree days 0 0  
Moisture  
Dew Point 13 °F    
Average Humidity 50    
Maximum Humidity 84    
Minimum Humidity 16    
Precipitation  
Precipitation 0.00 in 0.03 in 0.21 in (2000)
Month to date precipitation 0.01 0.61  
Year to date precipitation 0.42 1.58  
Sea Level Pressure  
Sea Level Pressure 30.30 in    
Wind  
Wind Speed 4 mph (SE)    
Max Wind Speed 12 mph    
Max Gust Speed 17 mph    
Visibility 10 miles    
Events      
T = Trace of Precipitation, MM = Missing Value Source: NWS Daily Summary

Daily Weather History Graph

Daily Weather History Graph

Search for Another Location

Airport:

Trip Planner

Search our weather history database for the weather conditions in past years. The results will help you decide how hot, cold, wet, or windy it might be!

Date:

Astronomy

Feb. 26, 2013 Rise Set
Actual Time 6:46 AM PST 5:49 PM PST
Civil Twilight 6:17 AM PST 6:18 PM PST
Nautical Twilight 5:43 AM PST 6:52 PM PST
Astronomical Twilight 5:09 AM PST 7:25 PM PST
Moon 7:16 PM PST 6:47 AM PST
Length of Visible Light 12h 01m
Length of Day
11h 03m
Full, 99% of the Moon is Illuminated
Feb 26
Full
Mar 4
Last Quarter
Mar 11
New
Mar 19
First Quarter
Mar 27
Full

Hourly Weather History & Observations

Time (PST) Temp. Windchill Dew Point Humidity Pressure Visibility Wind Dir Wind Speed Gust Speed Precip Events Conditions
12:56 AM 25.0 °F 20.7 °F 18.0 °F 75% 30.32 in 10.0 mi WNW 3.5 mph - N/A   Clear
1:56 AM 17.1 °F - 14.0 °F 88% 30.34 in 10.0 mi Calm Calm - N/A   Clear
2:56 AM 19.0 °F 12.3 °F 15.1 °F 85% 30.33 in 10.0 mi South 4.6 mph - N/A   Clear
3:56 AM 19.0 °F 11.1 °F 15.1 °F 85% 30.34 in 10.0 mi SSE 5.8 mph - N/A   Clear
4:56 AM 19.0 °F 11.1 °F 15.1 °F 85% 30.35 in 10.0 mi SSE 5.8 mph - N/A   Clear
5:56 AM 19.9 °F 12.1 °F 15.1 °F 81% 30.37 in 10.0 mi South 5.8 mph - N/A   Clear
6:56 AM 19.9 °F 14.9 °F 14.0 °F 78% 30.37 in 10.0 mi East 3.5 mph - N/A   Clear
7:56 AM 25.0 °F 18.1 °F 17.1 °F 72% 30.37 in 10.0 mi East 5.8 mph - N/A   Clear
8:56 AM 32.0 °F 27.5 °F 19.9 °F 61% 30.36 in 10.0 mi Variable 4.6 mph - N/A   Clear
9:56 AM 36.0 °F 29.0 °F 15.1 °F 43% 30.34 in 10.0 mi SSE 9.2 mph - N/A   Clear
10:56 AM 39.9 °F 33.9 °F 12.0 °F 32% 30.32 in 10.0 mi SE 9.2 mph - N/A   Clear
11:56 AM 43.0 °F 38.2 °F 3.9 °F 20% 30.29 in 10.0 mi SE 8.1 mph - N/A   Clear
12:56 PM 45.0 °F 41.8 °F 3.9 °F 18% 30.27 in 10.0 mi SSE 5.8 mph - N/A   Clear
1:56 PM 46.9 °F - 3.9 °F 17% 30.27 in 10.0 mi Variable 3.5 mph - N/A   Clear
2:56 PM 48.0 °F - 5.0 °F 17% 30.25 in 10.0 mi South 5.8 mph - N/A   Clear
3:56 PM 48.0 °F - 7.0 °F 19% 30.24 in 10.0 mi SSE 4.6 mph - N/A   Clear
4:56 PM 46.0 °F 44.8 °F 9.0 °F 22% 30.24 in 10.0 mi ENE 3.5 mph - N/A   Clear
5:56 PM 41.0 °F 39.0 °F 14.0 °F 33% 30.24 in 10.0 mi East 3.5 mph - N/A   Clear
6:56 PM 34.0 °F - 15.1 °F 46% 30.26 in 10.0 mi Calm Calm - N/A   Clear
7:56 PM 34.0 °F - 16.0 °F 48% 30.26 in 10.0 mi Calm Calm - N/A   Mostly Cloudy
8:56 PM 36.0 °F - 17.1 °F 46% 30.26 in 10.0 mi Calm Calm - N/A   Mostly Cloudy
9:56 PM 34.0 °F 31.0 °F 17.1 °F 50% 30.25 in 10.0 mi East 3.5 mph - N/A   Overcast
10:56 PM 33.1 °F - 17.1 °F 52% 30.24 in 10.0 mi Calm Calm - N/A   Clear
11:56 PM 25.0 °F - 15.1 °F 66% 30.25 in 10.0 mi Calm Calm - N/A   Clear